Home   Weather   Yazd   Past weeks

Flag for Iran Past Weather in Yazd, Iran — Yesterday and Last 2 Weeks

Now
90 °F

Sunny.


Feels Like: 86 °F
Forecast: 63 / 96 °F
Wind: 2 mph from North

Location: Yazd Airport

Current Time: Sep 27, 2016 at 12:13:35 PM

Latest Report: Sep 27, 2016 at 11:30 AM


Visibility: 10 mi

Pressure: 30.12 "Hg (26.28 "Hg at 1218m altitude)

Humidity: 10%

Dew Point: 27 °F

Location of YazdLocation

Past Weather in Yazd — Graph

°F

Yazd Temperature Yesterday

Maximum temperature yesterday: 97 °F (at 2:30 PM)
Minimum temperature yesterday: 66 °F (at 6:00 AM)
Average temperature yesterday: 82 °F

High & Low Weather Summary for the Past Weeks

 TemperatureHumidityPressure
High100 °F (Sep 14, 4:00 PM)29% (Sep 13, 7:00 AM)30.15 "Hg (Sep 13, 7:00 AM)
Low66 °F (Sep 26, 6:00 AM)4% (Sep 17, 4:30 PM)29.80 "Hg (Sep 24, 3:30 PM)
Average85 °F12%29.97 "Hg
* Reported Sep 12 11:30 AM — Sep 27 10:30 AM, Yazd, Weather by CustomWeather, © 2016

Note: Actual official high and low records may vary slightly from our data, if they occured in-between our weather recording intervals... More about our weather records

Advertising

Yazd Weather History for the Previous 24 Hours

Scroll right to see more
 ConditionsComfort  
Time TempWeatherWind HumidityBarometerVisibility
10:30 AM
Tue, Sep 27
86 °FSunny.5 mph11%30.12 "Hg10 mi
9:30 AM84 °FSunny.2 mph12%30.15 "Hg10 mi
9:00 AM82 °FSunny.2 mph13%30.15 "Hg10 mi
8:30 AM81 °FSunny.2 mph15%30.15 "Hg10 mi
8:00 AM81 °FSunny.No wind13%30.15 "Hg10 mi
7:30 AM75 °FSunny.2 mph15%30.12 "Hg10 mi
6:30 AM70 °FSunny.2 mph18%30.12 "Hg10 mi
6:00 AM68 °FClear.5 mph18%30.09 "Hg10 mi
5:30 AM70 °FClear.5 mph17%30.09 "Hg10 mi
4:30 AM72 °FClear.7 mph15%30.07 "Hg10 mi
3:30 AM75 °FClear.5 mph15%30.07 "Hg10 mi
2:20 AM73 °FClear.7 mph14%30.07 "Hg10 mi
1:30 AM73 °FClear.5 mph11%30.07 "Hg10 mi
12:30 AM75 °FClear.7 mph13%30.04 "Hg10 mi
11:30 PM
Mon, Sep 26
77 °FClear.7 mph8%30.04 "Hg10 mi
10:30 PM77 °FClear.5 mph8%30.04 "Hg10 mi
10:00 PM81 °FClear.7 mph7%30.04 "Hg10 mi
9:30 PM81 °FClear.5 mph7%30.04 "Hg10 mi
9:00 PM81 °FClear.7 mph7%30.04 "Hg10 mi
8:30 PM82 °FClear.2 mph7%30.01 "Hg10 mi
8:00 PM82 °FClear.2 mph7%30.01 "Hg10 mi
7:30 PM84 °FClear.2 mph10%30.01 "Hg10 mi
7:00 PM86 °FClear.2 mph9%29.98 "Hg10 mi
6:30 PM88 °FClear.2 mph9%29.98 "Hg10 mi
6:00 PM90 °FSunny.2 mph8%29.98 "Hg10 mi
5:30 PM93 °FSunny.5 mph7%29.98 "Hg10 mi
5:00 PM95 °FSunny.7 mph6%29.98 "Hg10 mi
4:30 PM95 °FSunny.5 mph6%29.98 "Hg10 mi
4:00 PM95 °FSunny.7 mph6%29.95 "Hg10 mi
3:30 PM95 °FSunny.2 mph6%29.95 "Hg10 mi
2:30 PM97 °FSunny.5 mph6%29.98 "Hg10 mi
1:30 PM95 °FSunny.5 mph7%29.98 "Hg10 mi
12:30 PM93 °FSunny.5 mph10%30.01 "Hg10 mi
Weather by CustomWeather, © 2016

See weather overviewHow to use our weather pages